Flag for U.S.A. Weather past 2 weeks in Hampton, Virginia, U.S.A.

Now
72 °F

Partly sunny.


Feels Like: 76 °F
Forecast: 69 / 74 °F
Wind: 8 mph from East

Location: Langley Air Force Base

Current Time: Sep 17, 2014 at 6:31:19 PM

Latest Report: Sep 17, 2014 at 5:58 PM


Visibility: 10 mi

Pressure: 29.97 "Hg

Humidity: 66%

Dew point: 60 °F

Location of HamptonLocation

Historic Weather in Hampton — Graph

°F

Hampton temperature yesterday

Maximum temperature yesterday: 78 °F (at 1:58 PM)
Minimum temperature yesterday: 67 °F (at 11:58 PM)
Average temperature yesterday: 72 °F

Past Weeks' High & Low Weather Summary

 TemperatureHumidityPressure
High95 °F (Sep 2, 4:58 PM)100% (Sep 3, 10:58 PM)30.29 "Hg (Sep 3, 10:58 PM)
Low62 °F (Sep 14, 11:58 PM)41% (Sep 2, 4:58 PM)29.91 "Hg (Sep 2, 5:58 PM)
Average75 °F84%30.08 "Hg
* Reported Sep 2 4:58 PM — Sep 17 4:58 PM, Hampton, Weather by CustomWeather, © 2014

Note: Actual official high and low records may vary slightly from our data, if they occured in-between our weather recording intervals... More about our weather records

Advertising

Hampton weather history for previous 24 hours

 ConditionsComfort  
Time TempWeatherWind HumidityBarometerVisibility
4:58 PM
Sep 17
74 °FPassing clouds.10 mph63%29.97 "Hg10 mi
3:58 PM73 °FPassing clouds.13 mph62%29.97 "Hg10 mi
2:58 PM75 °FBroken clouds.10 mph61%29.98 "Hg10 mi
1:58 PM75 °FScattered clouds.8 mph59%30.00 "Hg10 mi
12:58 PM74 °FPartly sunny.12 mph65%30.02 "Hg10 mi
11:58 AM75 °FPartly sunny.12 mph61%30.03 "Hg10 mi
10:58 AM74 °FPartly sunny.13 mph66%30.03 "Hg10 mi
9:58 AM72 °FPartly sunny.13 mph74%30.03 "Hg10 mi
8:58 AM71 °FPartly sunny.13 mph81%30.02 "Hg10 mi
7:58 AM69 °FPartly sunny.8 mph88%30.02 "Hg10 mi
6:58 AM68 °FPartly cloudy.5 mph93%30.01 "Hg10 mi
5:58 AM68 °FPassing clouds.5 mph96%30.00 "Hg10 mi
4:58 AM68 °FOvercast.8 mph90%30.00 "Hg10 mi
3:58 AM68 °FOvercast.8 mph84%30.00 "Hg10 mi
2:58 AM69 °FOvercast.12 mph82%30.00 "Hg10 mi
1:58 AM67 °FClear.7 mph82%30.00 "Hg10 mi
12:58 AM68 °FOvercast.7 mph80%30.02 "Hg10 mi
11:58 PM
Sep 16
67 °FMostly cloudy.8 mph88%30.02 "Hg10 mi
11:03 PM68 °FDrizzle. Mostly cloudy.2 mph100%30.00 "Hg8 mi
10:58 PM68 °FDrizzle. Overcast.2 mph100%30.02 "Hg8 mi
9:58 PM69 °FMostly cloudy.6 mph95%30.00 "Hg10 mi
8:58 PM72 °FDrizzle. Mostly cloudy.6 mph78%30.00 "Hg10 mi
7:58 PM71 °FDrizzle. Mostly cloudy.8 mph79%29.99 "Hg10 mi
6:58 PM72 °FPartly sunny.7 mph76%29.98 "Hg10 mi
Weather by CustomWeather, © 2014

See weather overviewHow to use our weather pages